Wind_Speed
11 13 13 15 19 20 22 22 21 16 16 15 16 17 12 10 9 10 8 9 4 8 17 12 10 11 11 8 3 3 4 5 6 5 3 3 5 5 4 4 6 8 6 4 5 4 7 4 4 4 4 3 3 5
11 13 16 16 14 16 21 23 23 16 17 17 17 13 13 11 12 9 10 12 11 11 14 16 22 24 22 22 10 5 2 2 10 5 4 2 3 1 6 3 8 5 6 3 7 4 3 3 2 2 2 5 8 5
9 11 16 17 19 21 20 24 23 21 18 16 14 12 12 14 12 12 11 15 17 14 26 19 14 11 13 28 30 6 8 3 3 4 2 1 5 4 4 7 7 8 9 4 3 5 12 9 9 2 0 3 5 4
10 12 13 16 19 24 23 26 25 23 20 17 12 13 13 14 15 13 16 16 15 10 8 12 12 14 11 16 24 36 22 4 8 6 6 4 4 5 3 2 6 2 10 8 10 10 6 8 8 8 5 5 8 8
16 17 19 19 23 27 29 27 29 23 21 19 16 14 16 15 14 16 19 20 21 15 8 21 32 26 26 26 17 23 33 25 12 5 5 5 3 3 3 2 7 11 8 7 5 3 6 5 6 5 5 7 11 11
21 21 24 25 25 25 28 26 32 26 22 21 18 16 14 13 13 12 8 6 10 20 6 5 11 13 7 20 27 24 30 23 14 6 5 4 3 5 3 5 5 9 14 12 13 2 2 2 7 7 7 8 11 12
25 25 25 26 26 26 29 29 33 25 23 20 16 16 15 14 15 11 6 5 6 12 5 5 5 6 8 14 18 19 24 14 13 6 5 4 5 7 3 8 5 6 9 9 6 6 8 8 4 6 7 9 10 11
26 25 25 25 24 26 29 31 33 23 25 19 14 14 15 15 12 17 20 23 15 5 5 4 4 5 13 7 9 16 9 20 12 4 2 4 5 5 5 9 14 14 7 8 8 9 9 8 9 11 11 11 12 11
31 30 28 26 28 27 29 33 32 28 22 13 11 10 9 8 7 8 8 11 13 9 4 4 3 2 9 5 5 7 7 3 4 5 5 4 3 7 6 8 9 9 8 6 11 11 10 12 13 14 14 13 13 14
31 30 29 28 28 27 25 30 30 27 16 11 7 5 6 6 10 5 8 9 8 6 7 4 5 3 2 10 3 6 5 3 3 3 6 3 5 16 6 9 6 12 12 10 8 8 11 12 12 12 12 13 15 17
30 28 26 26 26 24 24 36 33 29 19 15 7 6 6 5 8 5 6 6 7 4 8 8 8 3 0 1 2 3 1 1 2 2 2 3 4 3 9 9 8 8 8 9 10 11 10 10 11 11 13 13 14 17
30 26 24 22 22 24 30 41 34 29 18 15 6 8 7 7 6 4 4 4 5 3 6 4 3 4 2 3 3 3 2 1 1 4 2 3 1 6 7 7 5 5 6 6 6 7 8 9 10 11 12 14 14 15
25 23 22 17 16 18 37 29 33 27 18 11 6 4 6 7 6 5 6 4 3 4 4 3 2 0 2 2 3 1 3 1 5 2 3 3 6 8 7 6 4 3 2 1 2 3 4 5 6 7 8 9 9 9
26 22 17 19 19 21 39 36 32 24 14 6 7 5 5 5 5 4 4 1 1 4 5 1 2 1 1 2 1 2 1 2 3 3 3 2 9 10 9 8 7 4 3 2 2 2 3 3 3 4 5 6 6 5
25 22 19 24 24 37 40 32 28 27 10 6 6 5 6 4 2 3 3 2 2 6 8 4 2 0 1 2 0 2 2 3 4 2 1 5 12 12 11 10 8 6 4 2 1 2 4 4 4 5 6 7 6 6
27 15 24 34 43 37 34 30 28 19 4 5 5 4 5 2 2 2 4 4 5 6 6 2 1 1 2 1 2 3 2 4 1 1 3 10 14 13 12 11 9 6 3 1 2 4 6 6 6 6 7 8 8 7
23 31 34 37 37 38 33 29 14 7 7 4 4 7 5 4 3 1 3 3 8 5 2 2 3 3 2 2 2 2 4 1 1 2 4 11 15 15 13 11 8 5 2 2 4 6 7 7 7 7 7 8 9 9
35 41 37 36 36 34 28 7 5 6 5 6 3 3 4 4 3 2 3 3 5 5 3 1 2 3 3 4 3 3 5 3 3 3 7 13 15 15 13 9 7 5 3 4 6 7 7 7 7 7 8 9 8 8
41 37 32 28 30 14 4 6 4 4 6 2 3 4 3 3 7 5 4 3 3 4 3 2 2 3 3 3 2 2 3 4 2 5 9 11 13 13 12 12 10 7 6 6 7 7 7 7 8 9 10 10 10 11
29 28 31 29 21 5 4 3 6 2 2 1 3 3 2 2 4 6 5 4 3 2 3 3 4 4 3 4 5 4 3 4 7 6 9 12 14 14 13 12 11 10 9 9 8 8 7 8 8 9 10 11 11 10
30 25 21 21 6 4 4 3 2 1 1 1 2 2 1 2 1 2 2 6 3 4 3 6 7 10 10 7 7 5 6 6 7 8 8 11 16 15 15 14 13 12 11 10 9 8 9 9 9 10 11 11 12 12
22 20 20 10 3 3 3 2 3 3 1 2 2 2 1 1 1 1 3 4 5 7 8 10 15 16 14 13 14 17 15 14 12 13 13 12 11 15 17 16 15 14 12 11 10 9 10 11 11 12 12 11 11 11
20 15 6 3 3 2 2 5 2 1 1 3 2 2 1 1 1 1 3 4 7 11 15 18 20 21 22 20 19 18 17 16 17 17 16 15 13 13 13 14 14 14 12 11 10 11 12 13 14 14 14 13 13 14
10 3 2 2 2 3 3 2 2 1 1 1 1 1 1 0 1 2 2 4 9 9 10 11 13 16 17 18 17 15 16 17 16 17 17 17 16 14 13 13 12 12 12 12 12 13 14 16 16 16 15 15 16 16
2 2 1 3 3 3 2 2 0 1 2 1 1 1 1 0 1 2 2 5 6 6 6 7 8 10 13 12 11 11 11 13 16 16 16 17 16 14 14 13 13 12 12 13 13 15 17 17 17 17 16 17 17 17
3 1 0 3 3 3 4 3 3 3 2 2 2 1 1 1 2 4 2 3 1 2 4 6 7 8 8 7 5 5 6 9 11 15 15 15 15 15 14 13 13 12 12 12 14 16 18 18 17 18 19 18 18 19
2 2 1 2 3 4 3 3 2 1 2 3 3 3 2 2 4 4 3 2 1 3 6 8 9 8 8 9 8 6 6 6 7 9 11 13 13 14 15 15 15 14 14 15 16 19 19 19 19 19 19 20 21 21
1 3 1 3 1 1 2 1 3 4 3 5 6 3 4 5 3 1 2 1 2 5 8 12 14 14 13 11 12 13 12 11 10 11 13 14 15 16 16 17 18 18 19 19 21 22 21 19 19 20 22 23 24 23
0 1 4 2 1 2 5 5 3 3 4 8 3 3 4 5 4 3 6 12 17 21 24 27 26 24 23 24 24 22 20 19 19 20 20 21 19 19 18 19 20 20 21 21 22 22 20 20 22 23 24 26 26 26
3 6 3 2 2 3 3 7 3 4 6 10 7 8 13 20 24 26 28 28 29 30 30 30 29 30 30 28 27 27 27 26 25 25 26 26 25 23 21 20 20 20 21 23 22 21 22 24 24 24 25 26 27 27
3 7 2 4 4 5 7 9 12 15 15 14 18 20 25 26 30 31 27 23 25 26 28 29 30 30 31 31 28 26 26 24 25 25 25 26 26 25 24 24 24 24 24 23 22 23 23 24 25 25 23 22 20 18
4 4 2 2 3 6 10 6 5 6 7 10 11 16 16 12 12 23 23 22 23 26 30 29 28 26 24 25 23 22 23 22 21 19 17 17 17 18 19 19 21 21 21 22 22 23 22 21 20 19 19 18 16 15
1 2 3 4 4 4 4 3 4 5 6 6 9 12 16 10 9 24 30 26 27 27 28 29 30 28 26 24 22 20 18 16 14 12 12 12 13 14 15 17 19 20 20 20 18 17 16 15 16 14 13 13 13 13
Wind_Direction
245 245 254 278 280 278 284 292 298 296 292 285 298 298 279 287 304 316 287 306 288 272 278 262 257 263 291 256 261 105 159 206 188 224 216 206 245 203 220 210 187 187 189 200 209 225 253 133 139 227 58 85 17 339
249 258 264 262 273 279 284 290 290 280 281 281 300 284 289 268 270 288 278 283 293 262 266 273 269 266 253 256 272 269 298 203 208 219 219 234 206 175 232 242 197 211 216 188 211 215 96 157 357 38 353 353 343 335
247 255 256 259 265 277 277 278 284 280 271 278 297 279 281 277 265 266 278 275 284 286 295 266 266 265 271 240 239 271 231 258 245 263 285 237 242 196 205 237 219 228 209 239 200 234 236 234 216 261 204 34 341 313
272 261 263 274 271 268 274 275 273 273 259 267 285 280 280 276 267 279 284 278 261 274 273 284 282 265 261 250 228 228 230 301 302 268 231 220 230 203 239 5 254 18 166 222 244 262 259 244 209 202 184 224 303 309
279 274 278 279 274 265 268 271 264 259 253 263 277 279 280 270 264 280 279 266 263 234 285 292 291 290 254 231 217 221 229 242 266 238 221 214 197 202 215 282 248 213 227 222 242 359 250 57 114 182 231 276 280 294
286 283 279 278 272 267 264 265 269 248 245 252 269 274 268 262 274 288 300 278 260 238 278 288 288 287 250 215 217 214 216 226 229 232 222 227 183 210 247 256 253 236 230 258 267 346 257 219 254 266 253 271 275 280
295 289 283 275 270 264 265 265 257 235 242 244 268 266 267 263 267 226 248 262 349 208 254 277 270 274 211 184 188 198 204 213 222 233 223 212 207 196 252 236 218 222 237 234 235 242 259 241 235 250 285 285 277 270
296 294 287 280 276 263 260 255 254 240 237 242 257 266 270 272 261 252 249 252 269 232 244 272 273 273 170 160 182 201 188 215 205 222 201 213 184 210 248 247 245 253 217 216 223 235 246 243 268 279 283 285 278 276
296 292 283 272 268 268 259 254 246 234 219 235 246 269 268 241 241 242 256 231 232 221 268 246 280 328 165 141 211 164 157 144 204 200 182 165 183 224 238 250 248 217 208 222 228 249 265 274 276 277 279 280 280 274
291 287 280 274 266 264 252 236 228 217 205 211 222 234 236 219 223 172 165 188 214 220 226 254 258 265 203 182 202 135 174 166 161 168 148 230 245 244 221 226 228 193 208 218 225 249 265 272 276 276 274 273 270 271
289 284 275 271 269 252 250 229 215 196 186 182 179 235 240 205 169 207 211 203 193 224 214 236 237 275 159 332 79 85 125 118 163 155 218 228 255 188 211 213 210 215 226 238 247 252 265 269 275 280 280 279 280 275
288 287 283 272 268 260 245 210 203 188 184 173 187 217 210 194 214 228 208 200 210 241 190 232 189 238 116 87 92 169 115 201 181 132 223 247 167 139 167 194 210 231 243 246 249 254 262 270 275 280 286 291 285 277
281 278 282 262 245 268 205 212 197 193 177 152 203 219 200 207 224 227 209 197 215 196 209 196 171 155 110 102 90 141 174 166 122 206 238 250 139 167 171 174 179 194 197 214 251 264 268 274 277 276 294 306 299 295
272 280 252 249 239 229 209 197 181 174 145 175 185 232 215 194 227 207 249 14 120 153 155 143 68 80 76 58 96 135 88 163 229 230 229 131 175 168 170 167 161 147 121 101 42 23 5 350 328 321 320 326 325 310
266 271 254 259 231 195 176 170 170 163 165 180 200 233 225 274 292 290 267 247 173 146 128 128 83 326 34 122 157 113 183 238 235 257 77 153 169 168 164 162 158 151 135 116 63 21 9 8 4 349 344 342 331 326
258 236 198 179 178 165 159 163 165 157 190 213 226 259 240 271 203 232 267 255 184 155 135 129 123 177 168 198 184 204 247 237 206 132 171 168 167 166 166 165 165 162 151 63 7 356 350 345 341 338 334 336 338 335
167 152 160 148 143 158 161 158 149 158 211 219 234 233 254 294 312 229 257 233 198 170 141 159 191 178 106 188 220 201 223 281 187 182 175 181 176 170 167 167 170 175 182 345 341 339 338 339 338 335 330 328 324 324
151 142 146 153 155 160 159 135 127 190 219 220 225 202 213 230 248 272 268 236 180 180 125 216 112 197 211 205 210 209 220 227 192 175 176 177 183 184 186 192 196 209 247 296 312 317 318 322 325 325 327 329 328 320
137 146 154 152 157 130 113 160 177 218 214 198 231 224 213 224 227 233 259 253 218 185 175 171 235 213 220 255 317 311 267 212 200 193 184 190 198 203 209 212 220 238 266 291 302 304 308 315 321 326 330 332 330 326
140 152 163 158 148 130 123 138 184 188 171 167 190 199 224 225 220 221 234 230 202 202 213 217 221 229 275 312 306 281 295 272 222 199 208 209 211 216 219 229 242 251 267 282 284 285 294 306 314 320 323 325 326 327
145 148 153 163 145 75 91 113 108 113 150 190 187 182 250 247 226 188 224 221 230 231 238 228 235 263 275 280 284 298 305 306 243 229 243 237 234 227 231 238 245 254 264 270 268 277 289 296 305 311 316 319 320 322
137 148 146 137 102 94 90 122 119 154 140 117 139 184 233 257 243 194 235 218 241 239 231 255 270 276 280 280 273 272 269 266 264 253 248 250 247 235 239 247 250 256 260 259 264 274 282 288 299 306 310 311 312 313
129 133 127 123 118 102 103 133 107 100 197 148 176 206 185 197 279 245 263 250 262 263 262 263 270 275 277 274 268 265 265 261 255 252 251 247 243 243 247 252 253 249 248 252 264 279 287 290 296 302 304 303 305 308
125 114 110 105 89 112 124 68 83 96 137 176 189 187 158 135 305 236 259 253 243 246 268 285 286 288 285 277 268 264 256 250 249 245 242 242 242 247 251 249 244 241 247 258 269 281 288 289 289 292 293 295 300 303
121 37 55 72 91 108 111 136 128 188 190 181 180 178 149 4 235 242 240 257 265 289 302 302 297 296 285 286 279 261 258 252 246 247 243 241 242 245 245 243 242 245 254 266 279 286 288 286 284 284 288 294 297 300
86 343 98 149 147 174 172 147 193 194 140 159 193 116 116 220 244 245 225 240 264 350 5 6 3 7 7 354 329 295 272 264 252 244 242 241 244 247 247 247 250 255 265 273 284 291 290 286 281 285 290 292 293 297
134 202 169 129 122 125 96 75 106 163 168 198 163 165 162 205 242 246 224 201 42 25 14 6 359 348 342 345 343 331 312 291 263 253 246 244 245 240 240 248 257 264 272 278 288 296 290 282 283 287 289 292 295 297
57 160 101 140 109 149 141 168 185 210 202 175 147 189 197 207 242 170 123 187 333 339 335 335 332 325 315 311 312 304 294 282 270 256 250 248 247 246 247 250 256 261 272 277 288 293 288 285 285 287 290 292 293 294
201 188 158 85 162 223 226 207 232 223 203 180 196 218 239 228 222 233 289 307 308 306 306 307 307 303 298 293 290 290 287 279 272 266 261 260 260 258 256 257 262 264 273 278 287 287 283 282 285 286 288 290 293 293
198 193 148 157 168 239 244 210 235 256 238 233 253 271 272 278 284 287 289 290 290 291 293 292 291 288 287 285 287 285 280 275 271 266 266 268 270 270 270 268 266 270 276 283 285 282 283 285 287 288 289 290 291 292
177 175 190 217 251 248 249 263 269 267 263 260 261 260 268 279 283 285 287 292 297 292 287 285 284 280 279 280 283 283 282 277 269 265 263 263 264 264 264 266 272 276 281 283 283 284 285 285 287 289 290 292 293 285
170 181 191 258 272 289 297 274 260 257 257 246 252 254 261 269 272 290 285 284 277 274 284 283 280 279 279 279 278 276 276 272 268 266 262 262 260 258 260 266 272 277 281 283 285 286 286 286 287 289 292 292 290 287
237 226 237 280 288 269 260 261 271 279 250 252 252 249 253 251 257 276 277 276 279 282 282 277 272 270 270 271 271 267 263 261 256 250 250 254 260 265 268 273 278 282 284 286 287 287 288 289 291 293 291 293 294 294
Height
1492 1492 1492 1493 1491 1491 1491 1490 1490 1490 1488 1485 1487 1487 1483 1484 1482 1482 1484 1482 1481 1480 1470 1466 1465 1464 1462 1460 1455 1455 1458 1456 1456 1456 1454 1453 1449 1448 1449 1445 1449 1454 1456 1459 1459 1465 1459 1446 1449 1448 1449 1449 1450 1450
1488 1487 1488 1487 1486 1485 1487 1487 1485 1483 1482 1481 1480 1481 1485 1482 1481 1479 1478 1479 1478 1477 1468 1461 1458 1458 1458 1460 1462 1455 1452 1449 1449 1448 1446 1446 1446 1450 1445 1447 1448 1450 1444 1446 1451 1447 1443 1445 1446 1447 1447 1448 1449 1448
1482 1483 1484 1484 1483 1482 1481 1480 1481 1480 1478 1477 1477 1476 1477 1481 1478 1477 1476 1475 1474 1470 1459 1452 1447 1447 1448 1449 1455 1457 1450 1450 1449 1448 1445 1444 1445 1444 1445 1443 1442 1443 1443 1446 1445 1437 1441 1443 1445 1446 1446 1446 1448 1449
1478 1478 1478 1477 1477 1477 1476 1475 1475 1475 1473 1473 1472 1473 1473 1475 1475 1476 1475 1473 1471 1471 1462 1444 1443 1441 1440 1441 1442 1447 1446 1448 1450 1448 1445 1443 1443 1444 1439 1443 1440 1441 1441 1441 1439 1437 1440 1440 1441 1444 1444 1445 1447 1447
1473 1471 1470 1469 1469 1470 1469 1469 1469 1469 1471 1472 1470 1468 1470 1470 1471 1470 1470 1469 1467 1469 1455 1443 1438 1427 1426 1433 1435 1438 1444 1448 1449 1446 1442 1441 1441 1443 1442 1444 1438 1437 1437 1438 1434 1434 1435 1438 1440 1441 1443 1444 1444 1444
1465 1463 1463 1462 1460 1461 1462 1461 1462 1463 1464 1466 1466 1465 1465 1467 1466 1466 1466 1462 1459 1460 1458 1445 1430 1421 1421 1423 1428 1433 1437 1443 1445 1442 1438 1439 1438 1440 1437 1434 1430 1431 1434 1435 1435 1436 1438 1439 1439 1440 1441 1441 1441 1441
1455 1454 1452 1452 1450 1450 1453 1454 1455 1456 1458 1460 1461 1462 1463 1463 1462 1462 1464 1461 1459 1458 1457 1446 1429 1419 1418 1421 1426 1431 1434 1436 1440 1439 1436 1437 1437 1438 1433 1430 1428 1429 1431 1433 1434 1435 1436 1437 1437 1437 1438 1438 1438 1438
1445 1443 1444 1443 1441 1443 1444 1446 1449 1451 1454 1456 1456 1457 1460 1460 1457 1454 1455 1457 1458 1457 1455 1446 1428 1418 1417 1419 1423 1427 1428 1434 1432 1433 1434 1433 1434 1434 1429 1423 1424 1426 1429 1431 1432 1432 1433 1434 1434 1435 1435 1435 1435 1435
1437 1434 1434 1433 1433 1434 1435 1438 1443 1447 1447 1452 1454 1454 1456 1455 1452 1450 1451 1453 1453 1456 1448 1441 1428 1413 1416 1417 1419 1420 1422 1428 1430 1428 1430 1433 1431 1426 1420 1421 1422 1424 1427 1428 1429 1430 1430 1431 1431 1431 1431 1431 1431 1431
1426 1423 1424 1424 1422 1424 1426 1428 1435 1440 1444 1447 1453 1454 1451 1448 1447 1448 1451 1451 1450 1446 1444 1435 1427 1418 1416 1416 1415 1420 1419 1421 1425 1427 1429 1428 1421 1418 1417 1419 1420 1421 1422 1424 1426 1427 1427 1427 1428 1428 1428 1428 1428 1427
1414 1414 1412 1413 1413 1418 1420 1419 1426 1430 1435 1443 1449 1449 1446 1445 1446 1446 1444 1444 1441 1437 1432 1424 1420 1417 1414 1412 1413 1418 1420 1422 1421 1424 1425 1423 1415 1412 1414 1416 1418 1419 1421 1422 1424 1424 1424 1425 1424 1424 1424 1423 1423 1422
1404 1403 1402 1403 1406 1409 1413 1416 1420 1428 1431 1435 1442 1444 1443 1443 1442 1441 1433 1432 1428 1420 1418 1416 1415 1415 1414 1414 1417 1420 1420 1423 1418 1425 1424 1416 1408 1412 1414 1416 1417 1419 1419 1420 1420 1421 1421 1421 1421 1421 1420 1419 1418 1417
1394 1393 1393 1393 1398 1399 1404 1412 1419 1424 1430 1437 1441 1440 1438 1436 1433 1427 1420 1417 1415 1413 1413 1414 1415 1413 1415 1416 1418 1418 1418 1419 1423 1421 1414 1406 1411 1412 1414 1415 1417 1418 1418 1419 1419 1419 1419 1418 1418 1418 1417 1416 1415 1414
1386 1385 1385 1391 1390 1394 1399 1408 1415 1422 1429 1435 1437 1433 1429 1421 1419 1414 1412 1409 1411 1411 1412 1414 1414 1414 1416 1416 1417 1418 1421 1421 1418 1413 1405 1404 1409 1411 1413 1415 1417 1418 1418 1419 1419 1419 1419 1418 1417 1416 1415 1413 1412 1411
1376 1380 1383 1387 1385 1386 1396 1404 1412 1419 1426 1430 1430 1422 1417 1414 1414 1414 1414 1413 1412 1411 1412 1415 1416 1417 1416 1418 1418 1419 1420 1414 1408 1402 1404 1406 1408 1410 1412 1414 1416 1418 1419 1419 1420 1419 1419 1418 1417 1416 1415 1413 1412 1410
1365 1372 1374 1379 1383 1387 1396 1406 1414 1421 1424 1425 1423 1419 1415 1415 1413 1414 1414 1413 1412 1412 1413 1415 1416 1416 1415 1416 1417 1415 1415 1407 1401 1404 1404 1405 1407 1410 1412 1414 1416 1417 1418 1419 1419 1419 1418 1417 1416 1415 1414 1412 1411 1410
1362 1366 1375 1381 1387 1392 1399 1407 1415 1421 1421 1419 1416 1415 1415 1414 1413 1412 1413 1412 1412 1412 1412 1414 1414 1413 1417 1415 1415 1414 1408 1402 1403 1403 1404 1405 1407 1410 1412 1414 1416 1417 1418 1418 1418 1418 1417 1416 1415 1414 1413 1412 1410 1409
1360 1370 1377 1382 1388 1396 1403 1408 1413 1416 1415 1414 1413 1413 1413 1413 1413 1413 1412 1411 1411 1411 1413 1413 1414 1414 1411 1409 1404 1402 1402 1402 1403 1403 1404 1406 1408 1410 1412 1414 1415 1416 1416 1417 1417 1416 1415 1414 1413 1412 1411 1410 1409 1408
1368 1376 1382 1388 1393 1399 1406 1410 1413 1412 1411 1411 1411 1412 1412 1412 1412 1412 1412 1412 1411 1411 1412 1413 1412 1410 1406 1403 1402 1402 1402 1403 1404 1404 1405 1406 1408 1410 1411 1412 1413 1414 1415 1415 1415 1414 1413 1412 1412 1411 1409 1408 1407 1405
1377 1382 1387 1392 1398 1401 1405 1408 1409 1410 1409 1410 1410 1411 1412 1411 1411 1411 1412 1412 1412 1412 1411 1410 1408 1406 1405 1405 1404 1403 1403 1403 1403 1404 1405 1406 1407 1408 1409 1410 1411 1412 1413 1412 1412 1412 1412 1411 1410 1409 1408 1406 1405 1404
1382 1388 1393 1396 1400 1401 1404 1406 1408 1409 1409 1410 1410 1410 1411 1410 1410 1411 1411 1412 1412 1409 1405 1403 1403 1403 1403 1404 1404 1403 1403 1403 1403 1404 1403 1404 1404 1406 1407 1408 1409 1409 1410 1410 1410 1410 1410 1409 1409 1407 1406 1405 1403 1402
1387 1391 1395 1399 1401 1403 1406 1407 1409 1409 1411 1410 1410 1411 1411 1411 1411 1411 1411 1411 1407 1402 1401 1400 1400 1400 1400 1400 1401 1401 1401 1401 1401 1401 1401 1401 1402 1402 1403 1404 1405 1406 1406 1407 1407 1408 1407 1407 1406 1405 1404 1402 1401 1400
1391 1394 1397 1400 1402 1404 1409 1407 1408 1408 1409 1410 1411 1411 1411 1411 1411 1411 1410 1406 1401 1397 1396 1396 1396 1395 1394 1395 1395 1396 1396 1396 1397 1397 1397 1398 1399 1400 1400 1401 1402 1402 1403 1404 1404 1404 1404 1403 1402 1401 1400 1399 1398 1397
1394 1396 1398 1399 1401 1405 1406 1406 1408 1409 1410 1410 1410 1409 1411 1411 1411 1411 1407 1402 1395 1393 1393 1392 1392 1390 1389 1388 1388 1389 1390 1391 1391 1392 1393 1394 1395 1396 1397 1398 1398 1399 1400 1401 1401 1401 1400 1399 1398 1398 1397 1396 1395 1393
1397 1400 1401 1401 1401 1403 1405 1407 1408 1409 1408 1411 1410 1409 1411 1411 1410 1408 1403 1395 1392 1391 1390 1390 1388 1387 1385 1385 1385 1385 1386 1387 1387 1388 1389 1391 1392 1393 1394 1395 1396 1396 1397 1397 1397 1396 1396 1395 1394 1394 1393 1392 1390 1389
1397 1399 1399 1398 1400 1401 1402 1404 1406 1407 1408 1409 1410 1411 1411 1411 1409 1401 1395 1391 1390 1390 1390 1389 1388 1387 1386 1384 1383 1383 1384 1384 1384 1384 1386 1387 1388 1389 1391 1391 1392 1393 1393 1393 1393 1392 1391 1390 1389 1388 1388 1387 1385 1384
1396 1397 1397 1397 1398 1400 1402 1404 1405 1405 1407 1408 1407 1411 1410 1410 1402 1393 1390 1390 1391 1391 1390 1389 1389 1388 1387 1386 1385 1384 1383 1382 1382 1383 1384 1384 1385 1386 1387 1387 1388 1389 1389 1388 1387 1386 1385 1384 1383 1382 1381 1380 1379 1377
1395 1396 1398 1400 1401 1402 1403 1403 1404 1403 1401 1402 1405 1408 1406 1400 1392 1389 1389 1390 1390 1390 1390 1390 1389 1389 1388 1386 1385 1384 1383 1382 1381 1380 1380 1381 1381 1382 1382 1383 1383 1383 1383 1382 1382 1380 1379 1378 1377 1376 1375 1373 1372 1371
1396 1397 1399 1401 1402 1402 1400 1400 1398 1397 1397 1397 1398 1396 1392 1389 1388 1388 1388 1387 1387 1386 1385 1385 1385 1384 1383 1381 1380 1379 1379 1378 1377 1376 1376 1376 1376 1377 1377 1377 1377 1377 1376 1376 1375 1373 1373 1372 1370 1369 1367 1366 1364 1363
1397 1398 1399 1400 1401 1399 1396 1396 1395 1395 1395 1395 1394 1392 1389 1386 1386 1385 1384 1383 1382 1381 1380 1378 1376 1375 1373 1372 1371 1371 1371 1370 1370 1370 1369 1369 1370 1371 1371 1370 1370 1369 1369 1368 1367 1366 1365 1364 1362 1361 1360 1358 1356 1354
1396 1397 1399 1400 1398 1394 1393 1392 1392 1391 1391 1390 1389 1387 1383 1379 1375 1375 1375 1374 1373 1372 1370 1368 1366 1365 1364 1363 1363 1361 1360 1361 1361 1361 1361 1361 1361 1362 1363 1363 1362 1362 1361 1360 1359 1358 1357 1355 1354 1353 1352 1350 1349 1347
1396 1397 1398 1398 1394 1392 1391 1389 1387 1386 1384 1382 1380 1378 1375 1373 1367 1363 1362 1362 1360 1359 1357 1357 1355 1355 1355 1354 1354 1354 1353 1353 1353 1353 1353 1353 1354 1355 1355 1355 1355 1354 1353 1352 1351 1350 1349 1348 1346 1346 1345 1344 1343 1342
1396 1397 1396 1396 1394 1390 1388 1389 1385 1382 1379 1376 1371 1369 1367 1366 1362 1357 1353 1352 1351 1348 1347 1346 1345 1345 1345 1346 1346 1346 1346 1346 1346 1347 1348 1349 1349 1349 1349 1349 1348 1347 1346 1344 1344 1343 1342 1341 1340 1340 1339 1338 1337 1337